| time (UTC) | temp C | wind direction | speed KPH | gust KPH | rain 1hr cm | rain 24hr cm | rain mn cm | humidity % | barometer mb |
| 20260504100431 | 6 | 236 | 3.2 | 3.2 | 0.00 | 0.00 | 0.00 | 65 | 1010.2 |
| 20260504081824 | 7 | 236 | 8.0 | 8.0 | 0.00 | 0.00 | 0.00 | 60 | 1010.4 |
| 20260504081320 | 7 | 239 | 6.4 | 9.7 | 0.00 | 0.00 | 0.00 | 60 | 1010.2 |
| 20260504080816 | 7 | 236 | 8.0 | 9.7 | 0.00 | 0.00 | 0.00 | 63 | 1010.5 |
| 20260504080314 | 7 | 220 | 4.8 | 8.0 | 0.00 | 0.00 | 0.00 | 63 | 1010.4 |
| 20260504070241 | 7 | 270 | 3.2 | 3.2 | 0.00 | 0.00 | 0.00 | 64 | 1010.3 |
| 20260504060201 | 7 | 220 | 4.8 | 8.0 | 0.00 | 0.00 | 0.00 | 62 | 1010.3 |
| 20260504050629 | 8 | 256 | 4.8 | 8.0 | 0.00 | 0.00 | 0.00 | 60 | 1010.3 |
| 20260504050126 | 8 | 281 | 4.8 | 4.8 | 0.00 | 0.00 | 0.00 | 59 | 1010.3 |
| 20260504045623 | 8 | 218 | 6.4 | 11.3 | 0.00 | 0.00 | 0.00 | 59 | 1010.4 |
| 20260504045118 | 9 | 235 | 3.2 | 4.8 | 0.00 | 0.00 | 0.00 | 58 | 1010.3 |
| 20260504044616 | 9 | 229 | 4.8 | 4.8 | 0.00 | 0.00 | 0.00 | 57 | 1010.2 |
| 20260504044113 | 10 | 257 | 4.8 | 9.7 | 0.00 | 0.00 | 0.00 | 57 | 1010.3 |
| 20260504043610 | 10 | 261 | 6.4 | 9.7 | 0.00 | 0.00 | 0.00 | 57 | 1010.4 |
| 20260504043107 | 10 | 251 | 3.2 | 3.2 | 0.00 | 0.00 | 0.00 | 56 | 1010.5 |
| 20260504042604 | 10 | 244 | 4.8 | 4.8 | 0.00 | 0.00 | 0.00 | 56 | 1010.4 |
| 20260504042101 | 10 | 228 | 9.7 | 11.3 | 0.00 | 0.00 | 0.00 | 56 | 1010.4 |
| 20260504041556 | 10 | 270 | 4.8 | 4.8 | 0.00 | 0.00 | 0.00 | 57 | 1010.5 |
| 20260504041053 | 10 | 255 | 3.2 | 3.2 | 0.00 | 0.00 | 0.00 | 57 | 1010.5 |
| 20260504040550 | 10 | 242 | 4.8 | 4.8 | 0.00 | 0.00 | 0.00 | 57 | 1010.4 |
| 20260504040047 | 10 | 216 | 6.4 | 8.0 | 0.00 | 0.00 | 0.00 | 58 | 1010.2 |
| 20260504035544 | 10 | 236 | 4.8 | 8.0 | 0.00 | 0.00 | 0.00 | 58 | 1010.4 |
| 20260504035040 | 10 | 236 | 3.2 | 4.8 | 0.00 | 0.00 | 0.00 | 59 | 1010.2 |
| 20260504034538 | 10 | 280 | 1.6 | 1.6 | 0.00 | 0.00 | 0.00 | 59 | 1010.3 |
| 20260504034035 | 10 | 301 | 1.6 | 1.6 | 0.00 | 0.00 | 0.00 | 58 | 1010.2 |
| 20260504033533 | 10 | 261 | 1.6 | 1.6 | 0.00 | 0.00 | 0.00 | 58 | 1010.3 |
| 20260504033030 | 10 | 235 | 3.2 | 3.2 | 0.00 | 0.00 | 0.00 | 57 | 1010.3 |
| 20260504032527 | 10 | 210 | 3.2 | 3.2 | 0.00 | 0.00 | 0.00 | 56 | 1010.4 |
| 20260504032024 | 11 | 219 | 1.6 | 3.2 | 0.00 | 0.00 | 0.00 | 53 | 1010.5 |
| 20260504031521 | 11 | 227 | 1.6 | 3.2 | 0.00 | 0.00 | 0.00 | 52 | 1010.3 |
| 20260504031017 | 11 | 221 | 1.6 | 3.2 | 0.00 | 0.00 | 0.00 | 52 | 1010.5 |
| 20260504030514 | 11 | 258 | 1.6 | 1.6 | 0.00 | 0.00 | 0.00 | 50 | 1010.4 |
| 20260504030010 | 11 | 241 | 1.6 | 1.6 | 0.00 | 0.00 | 0.00 | 50 | 1010.3 |
| 20260504025507 | 11 | 283 | 1.6 | 3.2 | 0.00 | 0.00 | 0.00 | 50 | 1010.7 |
| 20260504025004 | 11 | 240 | 0.0 | 1.6 | 0.00 | 0.00 | 0.00 | 50 | 1010.7 |
| 20260504024502 | 11 | 267 | 0.0 | 0.0 | 0.00 | 0.00 | 0.00 | 50 | 1010.8 |
| 20260504023958 | 11 | 264 | 0.0 | 0.0 | 0.00 | 0.00 | 0.00 | 49 | 1010.8 |
| 20260504023455 | 11 | 297 | 4.8 | 8.0 | 0.00 | 0.00 | 0.00 | 49 | 1011.0 |
| 20260504022950 | 11 | 265 | 1.6 | 1.6 | 0.00 | 0.00 | 0.00 | 49 | 1010.8 |
| 20260504022447 | 11 | 277 | 6.4 | 8.0 | 0.00 | 0.00 | 0.00 | 49 | 1011.0 |
| 20260504021943 | 11 | 265 | 4.8 | 4.8 | 0.00 | 0.00 | 0.00 | 49 | 1011.1 |
| 20260504021441 | 11 | 255 | 1.6 | 3.2 | 0.00 | 0.00 | 0.00 | 50 | 1011.0 |
| 20260504020938 | 11 | 285 | 4.8 | 8.0 | 0.00 | 0.00 | 0.00 | 50 | 1010.8 |
| 20260504020434 | 11 | 279 | 6.4 | 9.7 | 0.00 | 0.00 | 0.00 | 50 | 1010.9 |
| 20260504015931 | 11 | 320 | 4.8 | 8.0 | 0.00 | 0.00 | 0.00 | 50 | 1010.9 |
| 20260504015427 | 11 | 275 | 6.4 | 8.0 | 0.00 | 0.00 | 0.00 | 50 | 1010.7 |
| 20260504014923 | 10 | 298 | 1.6 | 1.6 | 0.00 | 0.00 | 0.00 | 51 | 1010.9 |
| 20260504014419 | 10 | 232 | 4.8 | 4.8 | 0.00 | 0.00 | 0.00 | 52 | 1010.8 |
| 20260504013916 | 10 | 268 | 4.8 | 9.7 | 0.00 | 0.00 | 0.00 | 53 | 1011.0 |
| 20260504013415 | 10 | 260 | 1.6 | 1.6 | 0.00 | 0.00 | 0.00 | 52 | 1010.9 |
| 20260504012910 | 10 | 276 | 8.0 | 12.9 | 0.00 | 0.00 | 0.00 | 51 | 1010.8 |
| 20260504012409 | 10 | 274 | 0.0 | 0.0 | 0.00 | 0.00 | 0.00 | 52 | 1010.8 |
| 20260504011906 | 10 | 261 | 0.0 | 0.0 | 0.00 | 0.00 | 0.00 | 51 | 1010.8 |
| 20260504011403 | 10 | 276 | 0.0 | 0.0 | 0.00 | 0.00 | 0.00 | 50 | 1010.5 |
| 20260504010858 | 10 | 311 | 1.6 | 3.2 | 0.00 | 0.00 | 0.00 | 51 | 1010.6 |
| 20260504010354 | 10 | 288 | 4.8 | 4.8 | 0.00 | 0.00 | 0.00 | 51 | 1010.6 |
| 20260504005851 | 10 | 320 | 0.0 | 0.0 | 0.00 | 0.00 | 0.00 | 53 | 1010.5 |
| 20260504005348 | 10 | 284 | 0.0 | 0.0 | 0.00 | 0.00 | 0.00 | 54 | 1010.6 |
| 20260504004845 | 10 | 257 | 0.0 | 0.0 | 0.00 | 0.00 | 0.00 | 54 | 1010.4 |
| 20260504004343 | 10 | 252 | 0.0 | 0.0 | 0.00 | 0.00 | 0.00 | 55 | 1010.4 |
| 20260504003839 | 10 | 288 | 0.0 | 0.0 | 0.00 | 0.00 | 0.00 | 54 | 1010.5 |
| 20260504003336 | 10 | 272 | 1.6 | 1.6 | 0.00 | 0.00 | 0.00 | 55 | 1010.4 |
| 20260504002833 | 10 | 298 | 6.4 | 8.0 | 0.00 | 0.00 | 0.00 | 55 | 1010.3 |
| 20260504002330 | 10 | 286 | 3.2 | 3.2 | 0.00 | 0.00 | 0.00 | 53 | 1010.2 |
| 20260504001827 | 10 | 302 | 3.2 | 3.2 | 0.00 | 0.00 | 0.00 | 56 | 1009.8 |
| 20260504001324 | 11 | 260 | 0.0 | 0.0 | 0.00 | 0.00 | 0.00 | 51 | 1009.6 |
| 20260504000821 | 11 | 303 | 1.6 | 1.6 | 0.00 | 0.00 | 0.00 | 50 | 1009.8 |
| 20260504000318 | 11 | 273 | 0.0 | 0.0 | 0.00 | 0.00 | 0.00 | 49 | 1009.6 |
| 20260503235816 | 11 | 248 | 3.2 | 3.2 | 0.00 | 0.00 | 0.00 | 47 | 1009.5 |
| 20260503235313 | 11 | 237 | 3.2 | 3.2 | 0.00 | 0.00 | 0.00 | 46 | 1009.6 |
| 20260503234811 | 11 | 230 | 3.2 | 3.2 | 0.00 | 0.00 | 0.00 | 46 | 1009.5 |
| 20260503234308 | 11 | 248 | 4.8 | 4.8 | 0.00 | 0.00 | 0.00 | 46 | 1009.6 |
| 20260503233806 | 11 | 237 | 4.8 | 4.8 | 0.00 | 0.00 | 0.00 | 46 | 1009.7 |
| 20260503233301 | 12 | 212 | 6.4 | 8.0 | 0.00 | 0.00 | 0.00 | 47 | 1009.5 |
| 20260503232758 | 12 | 228 | 4.8 | 8.0 | 0.00 | 0.00 | 0.00 | 46 | 1009.6 |
| 20260503232256 | 12 | 219 | 6.4 | 8.0 | 0.00 | 0.00 | 0.00 | 44 | 1009.4 |
| 20260503231754 | 12 | 222 | 4.8 | 4.8 | 0.00 | 0.00 | 0.00 | 46 | 1009.3 |
| 20260503231250 | 12 | 260 | 1.6 | 3.2 | 0.00 | 0.00 | 0.00 | 43 | 1009.7 |
| 20260503230746 | 12 | 209 | 8.0 | 11.3 | 0.00 | 0.00 | 0.00 | 43 | 1009.6 |
| 20260503230244 | 12 | 265 | 0.0 | 1.6 | 0.00 | 0.00 | 0.00 | 44 | 1009.5 |
| 20260503225741 | 12 | 301 | 4.8 | 8.0 | 0.00 | 0.00 | 0.00 | 42 | 1009.3 |
| 20260503225241 | 12 | 307 | 8.0 | 11.3 | 0.00 | 0.00 | 0.00 | 42 | 1009.5 |
| 20260503224738 | 13 | 205 | 4.8 | 8.0 | 0.00 | 0.00 | 0.00 | 42 | 1009.4 |
| 20260503224236 | 13 | 263 | 1.6 | 1.6 | 0.00 | 0.00 | 0.00 | 42 | 1009.4 |
| 20260503223733 | 13 | 282 | 12.9 | 14.5 | 0.00 | 0.00 | 0.00 | 41 | 1009.4 |
| 20260503223231 | 13 | 237 | 4.8 | 4.8 | 0.00 | 0.00 | 0.00 | 41 | 1009.7 |
| 20260503222727 | 13 | 288 | 8.0 | 14.5 | 0.00 | 0.00 | 0.00 | 41 | 1009.5 |
| 20260503222225 | 13 | 242 | 1.6 | 3.2 | 0.00 | 0.00 | 0.00 | 43 | 1009.6 |
| 20260503221723 | 13 | 310 | 6.4 | 9.7 | 0.00 | 0.00 | 0.00 | 42 | 1009.9 |
| 20260503221221 | 13 | 315 | 11.3 | 12.9 | 0.00 | 0.00 | 0.00 | 42 | 1009.8 |
| 20260503220717 | 13 | 281 | 11.3 | 14.5 | 0.00 | 0.00 | 0.00 | 41 | 1009.9 |
| 20260503220214 | 12 | 269 | 1.6 | 1.6 | 0.00 | 0.00 | 0.00 | 43 | 1009.8 |
| 20260503215710 | 12 | 314 | 6.4 | 11.3 | 0.00 | 0.00 | 0.00 | 44 | 1010.0 |
| 20260503215208 | 12 | 261 | 6.4 | 9.7 | 0.00 | 0.00 | 0.00 | 43 | 1010.1 |
| 20260503214706 | 12 | 324 | 11.3 | 12.9 | 0.00 | 0.00 | 0.00 | 44 | 1009.8 |
| 20260503214201 | 12 | 264 | 1.6 | 1.6 | 0.00 | 0.00 | 0.00 | 45 | 1010.0 |
| 20260503213655 | 12 | 262 | 4.8 | 8.0 | 0.00 | 0.00 | 0.00 | 44 | 1010.1 |
| 20260503213152 | 12 | 278 | 6.4 | 9.7 | 0.00 | 0.00 | 0.00 | 43 | 1010.0 |
| 20260503212649 | 12 | 291 | 8.0 | 11.3 | 0.00 | 0.00 | 0.00 | 43 | 1010.0 |
| 20260503212146 | 12 | 224 | 1.6 | 1.6 | 0.00 | 0.00 | 0.00 | 45 | 1010.0 |
| 20260503211644 | 11 | 283 | 14.5 | 16.1 | 0.00 | 0.00 | 0.00 | 43 | 1010.1 |
| 20260503211139 | 11 | 292 | 3.2 | 4.8 | 0.00 | 0.00 | 0.00 | 43 | 1010.1 |
| 20260503210636 | 11 | 265 | 4.8 | 8.0 | 0.00 | 0.00 | 0.00 | 44 | 1010.1 |
| 20260503210132 | 11 | 284 | 4.8 | 8.0 | 0.00 | 0.00 | 0.00 | 42 | 1009.9 |
| 20260503205628 | 12 | 288 | 8.0 | 9.7 | 0.00 | 0.00 | 0.00 | 42 | 1010.0 |
| 20260503205125 | 12 | 295 | 17.7 | 20.9 | 0.00 | 0.00 | 0.00 | 42 | 1009.8 |
| 20260503204621 | 12 | 271 | 8.0 | 9.7 | 0.00 | 0.00 | 0.00 | 41 | 1009.7 |
| 20260503204119 | 12 | 305 | 8.0 | 9.7 | 0.00 | 0.00 | 0.00 | 41 | 1009.6 |
| 20260503203616 | 12 | 271 | 9.7 | 12.9 | 0.00 | 0.00 | 0.00 | 42 | 1009.8 |
| 20260503203114 | 12 | 289 | 8.0 | 11.3 | 0.00 | 0.00 | 0.00 | 40 | 1009.8 |
| 20260503202611 | 12 | 229 | 3.2 | 3.2 | 0.00 | 0.00 | 0.00 | 40 | 1009.9 |
| 20260503202108 | 12 | 265 | 6.4 | 9.7 | 0.00 | 0.00 | 0.00 | 40 | 1010.0 |
| 20260503201606 | 12 | 333 | 14.5 | 20.9 | 0.00 | 0.00 | 0.00 | 40 | 1009.9 |
| 20260503201103 | 12 | 301 | 3.2 | 3.2 | 0.00 | 0.00 | 0.00 | 41 | 1010.0 |
| 20260503200600 | 12 | 272 | 4.8 | 8.0 | 0.00 | 0.00 | 0.00 | 42 | 1009.8 |
| 20260503200056 | 12 | 299 | 3.2 | 3.2 | 0.00 | 0.00 | 0.00 | 40 | 1010.0 |
| 20260503195553 | 12 | 307 | 8.0 | 12.9 | 0.00 | 0.00 | 0.00 | 42 | 1010.0 |
| 20260503195050 | 12 | 222 | 11.3 | 16.1 | 0.00 | 0.00 | 0.00 | 39 | 1010.1 |
| 20260503194547 | 12 | 7 | 17.7 | 24.1 | 0.00 | 0.00 | 0.00 | 39 | 1010.1 |
| 20260503194047 | 11 | 287 | 6.4 | 9.7 | 0.00 | 0.00 | 0.00 | 41 | 1010.1 |
| 20260503193544 | 11 | 304 | 9.7 | 12.9 | 0.00 | 0.00 | 0.00 | 40 | 1010.2 |
| 20260503193039 | 12 | 308 | 12.9 | 16.1 | 0.00 | 0.00 | 0.00 | 38 | 1010.4 |
| 20260503192536 | 12 | 288 | 14.5 | 16.1 | 0.00 | 0.00 | 0.00 | 37 | 1010.5 |
| 20260503192032 | 12 | 265 | 9.7 | 12.9 | 0.00 | 0.00 | 0.00 | 39 | 1010.4 |
| 20260503191528 | 12 | 7 | 4.8 | 8.0 | 0.00 | 0.00 | 0.00 | 40 | 1010.4 |
| 20260503191025 | 11 | 317 | 4.8 | 8.0 | 0.00 | 0.00 | 0.00 | 40 | 1010.5 |
| 20260503190522 | 11 | 268 | 16.1 | 20.9 | 0.00 | 0.00 | 0.00 | 38 | 1010.6 |
| 20260503190019 | 12 | 345 | 11.3 | 16.1 | 0.00 | 0.00 | 0.00 | 38 | 1010.8 |
| 20260503185515 | 11 | 239 | 9.7 | 12.9 | 0.00 | 0.00 | 0.00 | 38 | 1010.8 |
| 20260503185015 | 12 | 310 | 8.0 | 9.7 | 0.00 | 0.00 | 0.00 | 37 | 1010.4 |
| 20260503184512 | 11 | 352 | 12.9 | 12.9 | 0.00 | 0.00 | 0.00 | 39 | 1010.7 |
| 20260503184008 | 12 | 278 | 11.3 | 20.9 | 0.00 | 0.00 | 0.00 | 38 | 1010.8 |
| 20260503183505 | 11 | 279 | 4.8 | 8.0 | 0.00 | 0.00 | 0.00 | 38 | 1010.8 |
| 20260503183002 | 11 | 266 | 6.4 | 9.7 | 0.00 | 0.00 | 0.00 | 38 | 1010.9 |
| 20260503182500 | 11 | 254 | 11.3 | 14.5 | 0.00 | 0.00 | 0.00 | 37 | 1011.3 |
| 20260503181958 | 11 | 276 | 11.3 | 14.5 | 0.00 | 0.00 | 0.00 | 38 | 1011.2 |
| 20260503181455 | 11 | 339 | 17.7 | 24.1 | 0.00 | 0.00 | 0.00 | 39 | 1011.0 |
| 20260503180950 | 11 | 269 | 6.4 | 9.7 | 0.00 | 0.00 | 0.00 | 40 | 1011.2 |
| 20260503180449 | 11 | 351 | 8.0 | 11.3 | 0.00 | 0.00 | 0.00 | 38 | 1011.4 |
| 20260503175945 | 11 | 333 | 6.4 | 9.7 | 0.00 | 0.00 | 0.00 | 41 | 1011.2 |
| 20260503175444 | 10 | 314 | 8.0 | 11.3 | 0.00 | 0.00 | 0.00 | 38 | 1011.2 |
| 20260503174939 | 10 | 291 | 9.7 | 12.9 | 0.00 | 0.00 | 0.00 | 40 | 1011.5 |
| 20260503174437 | 11 | 314 | 16.1 | 20.9 | 0.00 | 0.00 | 0.00 | 38 | 1011.6 |
| 20260503173932 | 10 | 4 | 17.7 | 24.1 | 0.00 | 0.00 | 0.00 | 39 | 1011.5 |
| 20260503173428 | 10 | 342 | 20.9 | 29.0 | 0.00 | 0.00 | 0.00 | 39 | 1011.5 |
| 20260503172925 | 10 | 277 | 11.3 | 16.1 | 0.00 | 0.00 | 0.00 | 38 | 1011.7 |
| 20260503172423 | 10 | 312 | 22.5 | 27.4 | 0.00 | 0.00 | 0.00 | 40 | 1011.8 |
| 20260503171919 | 10 | 347 | 16.1 | 24.1 | 0.00 | 0.00 | 0.00 | 38 | 1011.8 |
| 20260503171416 | 10 | 327 | 12.9 | 16.1 | 0.00 | 0.00 | 0.00 | 40 | 1011.6 |
| 20260503170913 | 10 | 276 | 6.4 | 12.9 | 0.00 | 0.00 | 0.00 | 40 | 1012.1 |
| 20260503170409 | 10 | 272 | 24.1 | 32.2 | 0.00 | 0.00 | 0.00 | 36 | 1012.1 |
| 20260503150801 | 8 | 340 | 11.3 | 14.5 | 0.00 | 0.00 | 0.00 | 41 | 1012.8 |
| 20260503150257 | 7 | 294 | 14.5 | 17.7 | 0.00 | 0.00 | 0.00 | 43 | 1012.8 |
| 20260503140222 | 7 | 306 | 1.6 | 4.8 | 0.00 | 0.00 | 0.00 | 46 | 1013.1 |
| 20260503131151 | 5 | 326 | 8.0 | 11.3 | 0.00 | 0.00 | 0.00 | 57 | 1013.1 |
| 20260503130649 | 5 | 287 | 3.2 | 3.2 | 0.00 | 0.00 | 0.00 | 55 | 1013.1 |
| 20260503130146 | 6 | 300 | 6.4 | 8.0 | 0.00 | 0.00 | 0.00 | 55 | 1013.1 |
| 20260503120112 | 5 | 298 | 8.0 | 11.3 | 0.00 | 0.00 | 0.00 | 68 | 1013.1 |
| 20260503110539 | 3 | 290 | 3.2 | 3.2 | 0.00 | 0.00 | 0.00 | 75 | 1012.9 |